User: anonymous   Login
Location: Newark
(41.1142°N, 73.9831°W)
Time: 13:26:55
(UTC+00:00)
Language:

N. Korean satellite - Orbit

View from above orbital plane
View from above orbital plane
View from above satellite
View from above satellite

Ground track
Ground track

The orbit data is extracted from the following two-line orbital elements,

1 39026U 12072A   19294.94659150 +.00001509 +00000-0 +56623-4 0  9997
2 39026 097.2156 294.0827 0038401 018.6391 341.6245 15.28084732380666
Epoch (UTC): 21 October 2019 22:43:05
Eccentricity: 0.0038401
inclination: 97.2156°
perigee height: 455 km
apogee height: 508 km
right ascension of ascending node: 294.0827°
argument of perigee: 18.6391°
revolutions per day: 15.28084732
mean anomaly at epoch: 341.6245°
orbit number at epoch: 38066

The dashed part of the orbit path shows where the satellite is in the earth's shadow,  

DLR